TimePDT,TemperatureF,Dew PointF,Humidity,Sea Level PressureIn,VisibilityMPH,Wind Direction,Wind SpeedMPH,Gust SpeedMPH,PrecipitationIn,Events,Conditions,WindDirDegrees,DateUTC
12:58 AM,66.9,44.1,44,29.91,10.0,SSW,9.2,-,N/A,,Clear,210,2013-08-11 07:58:00
1:58 AM,66.4,43.7,44,29.89,10.0,SW,9.2,-,N/A,,Clear,220,2013-08-11 08:58:00
2:58 AM,65.3,43.5,45,29.90,10.0,SSW,10.4,-,N/A,,Clear,200,2013-08-11 09:58:00
3:58 AM,63.9,43.0,47,29.90,10.0,SW,8.1,-,N/A,,Clear,220,2013-08-11 10:58:00
4:58 AM,62.8,43.2,49,29.91,10.0,SSW,8.1,-,N/A,,Clear,210,2013-08-11 11:58:00
5:58 AM,59.9,42.8,53,29.92,10.0,SSW,6.9,-,N/A,,Clear,210,2013-08-11 12:58:00
6:58 AM,61.9,44.8,53,29.92,10.0,SSW,10.4,-,N/A,,Clear,210,2013-08-11 13:58:00
7:58 AM,67.1,47.1,49,29.93,10.0,SSW,9.2,-,N/A,,Clear,210,2013-08-11 14:58:00
8:58 AM,73.0,47.1,40,29.93,70.0,SW,5.8,-,N/A,,Clear,220,2013-08-11 15:58:00
9:58 AM,78.4,45.0,30,29.93,70.0,Variable,2.3,-,N/A,,Clear,0,2013-08-11 16:58:00
10:58 AM,81.9,44.6,27,29.93,70.0,NE,4.6,-,N/A,,Clear,40,2013-08-11 17:58:00
11:58 AM,85.1,41.7,22,29.90,70.0,Variable,5.8,-,N/A,,Clear,0,2013-08-11 18:58:00
12:58 PM,87.1,36.9,17,29.90,70.0,East,6.9,-,N/A,,Clear,90,2013-08-11 19:58:00
1:58 PM,90.3,32.2,13,29.87,70.0,East,4.6,-,N/A,,Clear,100,2013-08-11 20:58:00
2:58 PM,91.8,29.8,11,29.85,70.0,Variable,4.6,-,N/A,,Clear,0,2013-08-11 21:58:00
3:58 PM,93.9,30.2,10,29.83,70.0,SSW,8.1,-,N/A,,Clear,200,2013-08-11 22:58:00
4:58 PM,94.8,31.8,11,29.81,10.0,Variable,5.8,-,N/A,,Clear,0,2013-08-11 23:58:00
5:58 PM,93.6,42.8,17,29.80,10.0,WSW,18.4,23.0,N/A,,Clear,250,2013-08-12 00:58:00
6:58 PM,88.3,44.4,22,29.82,10.0,WSW,18.4,29.9,N/A,,Clear,250,2013-08-12 01:58:00
7:58 PM,83.7,45.5,26,29.83,10.0,WSW,19.6,-,N/A,,Clear,250,2013-08-12 02:58:00
8:58 PM,80.8,46.2,30,29.85,10.0,WSW,16.1,-,N/A,,Clear,250,2013-08-12 03:58:00
9:58 PM,76.5,45.0,33,29.86,10.0,WSW,13.8,-,N/A,,Clear,240,2013-08-12 04:58:00
10:58 PM,73.6,44.6,35,29.87,10.0,SW,8.1,-,N/A,,Clear,230,2013-08-12 05:58:00
11:58 PM,70.7,45.0,40,29.87,10.0,SSW,10.4,-,N/A,,Clear,210,2013-08-12 06:58:00